Regional Weather Roundup
Issued by NWS Nashville, TN

Home | Current Version | Previous Version | Text Only | Print | Product List | Glossary On
Versions: 1 2 3 4 5 6 7 8 9 10 11 12 13 14 15 16 17 18 19 20 21 22 23 24 25 26 27 28 29 30 31 32 33 34 35 36 37 38 39 40 41 42 43 44 45 46 47 48 49 50
000
ASUS44 KOHX 310110
RWROHX
MIDDLE TENNESSEE HOURLY WEATHER ROUNDUP
NATIONAL WEATHER SERVICE NASHVILLE TN
800 PM CDT MON MAR 30 2015

NOTE: "FAIR" INDICATES FEW OR NO CLOUDS BELOW 12,000 FEET WITH
NO SIGNIFICANT WEATHER AND/OR OBSTRUCTIONS TO VISIBILITY.

* THESE REPORTS ARE NOT UNDER NWS QUALITY CONTROL AND MAY NOT
  REPORT WEATHER SUCH AS PRECIPITATION AND FOG.


TNZ005>011-023>034-057-059-062>066-078-080-310200
...NORTHERN MIDDLE TENNESSEE...

CITY           SKY/WX    TMP DP  RH WIND       PRES   REMARKS
CLARKSVILLE    CLEAR     59  25  27 CALM      30.09F
CROSSVILLE     CLEAR     55  24  30 W6        30.13R
GALLATIN         N/A     56  34  43 CALM      30.12R
LIVINGSTON     CLEAR     57  27  32 NW5       30.12
NASHVILLE      CLEAR     61  25  25 NE5       30.11R
SMYRNA         CLEAR     53  32  45 CALM      30.12R
SPARTA         CLEAR     45  34  65 CALM      30.12
$$
TNZ056-058-060-061-075>077-079-093>097-310200
...SOUTHERN MIDDLE TENNESSEE...

CITY           SKY/WX    TMP DP  RH WIND       PRES   REMARKS
COLUMBIA       CLEAR     59  32  36 CALM      30.10R
LEWISBURG      CLEAR     51  41  69 CALM      30.11R
MCMINNVILLE    CLEAR     54  36  50 W23       30.12R SQUALL
SHELBYVILLE    CLEAR     54  37  54 CALM      30.13R
TULLAHOMA      CLEAR     55  30  38 CALM      30.13R
WINCHESTER     CLEAR     52  39  62 CALM      30.13S
$$


...KEY TO REMARKS...
VSB - VISIBILITY IN MILES
WCI - WIND CHILL INDEX
HX  - HEAT INDEX




USA.gov is the U.S. government's official web portal to all federal, state and local government web resources and services.